Miles City, MT

5:07 AM MDT on March 28, 2017 (GMT -0600)
Wiley

Weather History for KMLS - August, 2013

Change the Weather History Date:

Friday, August 30, 2013

  Actual Average Record
Temperature  
Mean Temperature 78 °F 68 °F  
Max Temperature 96 °F 83 °F 105 °F (1948)
Min Temperature 60 °F 54 °F 40 °F (1992)
Degree Days  
Heating Degree Days 0 2  
Month to date heating degree days 0 17  
Since 1 June heating degree days 59 118  
Since 1 July heating degree days 0 29  
Cooling Degree Days 13 5  
Month to date cooling degree days 305 253  
Year to date cooling degree days 730 668  
Since 1 June cooling degree days 717 648  
Growing Degree Days 28 (Base 50)    
Moisture  
Dew Point 55 °F    
Average Humidity 52    
Maximum Humidity 84    
Minimum Humidity 20    
Precipitation  
Precipitation T in 0.02 in 1.40 in (1971)
Month to date precipitation 1.72 0.88  
Year to date precipitation 13.84 9.73  
Sea Level Pressure  
Sea Level Pressure 29.89 in    
Wind  
Wind Speed 7 mph (SSE)    
Max Wind Speed 49 mph    
Max Gust Speed 60 mph    
Visibility 10 miles    
Events Rain , Thunderstorm    
T = Trace of Precipitation, MM = Missing Value Source: NWS Daily Summary

Daily Weather History Graph

Daily Weather History Graph

Search for Another Location

Airport or City:

Trip Planner

Search our weather history database for the weather conditions in past years. The results will help you decide how hot, cold, wet, or windy it might be!

Date:

Astronomy

Aug. 30, 2013 Rise Set
Actual Time 6:21 AM MDT 7:45 PM MDT
Civil Twilight 5:50 AM MDT 8:16 PM MDT
Nautical Twilight 5:12 AM MDT 8:54 PM MDT
Astronomical Twilight 4:31 AM MDT 9:35 PM MDT
Moon 12:51 AM MDT (8/30) 4:13 PM MDT (8/30)
Length of Visible Light 14h 26m
Length of Day
13h 24m
Waning Crescent, 28% of the Moon is Illuminated
Aug 30
Waning Crescent
Sep 5
New
Sep 12
First Quarter
Sep 19
Full
Sep 26
Last Quarter

Hourly Weather History & Observations

Time (MDT) Temp. Heat Index Dew Point Humidity Pressure Visibility Wind Dir Wind Speed Gust Speed Precip Events Conditions
12:53 AM 72.0 °F - 55.9 °F 57% 29.95 in 10.0 mi SSE 4.6 mph - N/A   Clear
1:53 AM 72.0 °F - 53.1 °F 51% 29.94 in 10.0 mi SSE 5.8 mph - N/A   Clear
2:53 AM 69.1 °F - 54.0 °F 58% 29.93 in 10.0 mi SSE 5.8 mph - N/A   Clear
3:53 AM 64.0 °F - 55.0 °F 73% 29.96 in 10.0 mi West 11.5 mph - N/A   Clear
4:53 AM 64.9 °F - 55.0 °F 70% 29.94 in 10.0 mi SE 5.8 mph - N/A   Clear
5:53 AM 63.0 °F - 55.0 °F 75% 29.93 in 10.0 mi SE 3.5 mph - N/A   Clear
6:53 AM 61.0 °F - 55.0 °F 81% 29.95 in 10.0 mi South 5.8 mph - N/A   Clear
7:53 AM 66.9 °F - 55.0 °F 66% 29.95 in 10.0 mi SW 4.6 mph - N/A   Clear
8:53 AM 73.9 °F - 52.0 °F 46% 29.96 in 10.0 mi WNW 9.2 mph - N/A   Clear
9:53 AM 77.0 °F - 53.1 °F 43% 29.95 in 10.0 mi SE 5.8 mph - N/A   Clear
10:53 AM 82.0 °F 81.3 °F 54.0 °F 38% 29.94 in 10.0 mi Variable 4.6 mph - N/A   Clear
11:53 AM 87.1 °F 85.1 °F 54.0 °F 32% 29.93 in 10.0 mi Variable 5.8 mph - N/A   Clear
12:53 PM 91.0 °F 88.9 °F 55.0 °F 29% 29.90 in 10.0 mi Variable 4.6 mph - N/A   Clear
1:53 PM 93.0 °F - 50.0 °F 23% 29.88 in 10.0 mi Calm Calm - N/A   Clear
2:53 PM 95.0 °F - 48.0 °F 20% 29.85 in 10.0 mi WNW 8.1 mph - N/A   Clear
3:53 PM 96.1 °F - 48.9 °F 20% 29.83 in 10.0 mi Calm Calm - N/A   Clear
4:53 PM 95.0 °F - 48.9 °F 21% 29.81 in 10.0 mi South 5.8 mph - N/A   Clear
5:53 PM 93.0 °F - 48.9 °F 22% 29.80 in 10.0 mi SSE 9.2 mph - N/A   Clear
6:16 PM 91.4 °F - 51.8 °F 26% 29.86 in 10.0 mi SSE 6.9 mph - N/A Thunderstorm Clear
6:32 PM 78.8 °F - 55.4 °F 44% 29.91 in 6.0 mi NW 44.9 mph 59.8 mph N/A Thunderstorm Unknown
6:38 PM 75.2 °F - 59.0 °F 57% 29.92 in 4.0 mi North 36.8 mph 59.8 mph 0.00 in Rain , Thunderstorm Light Thunderstorms and Rain
6:53 PM 75.0 °F - 57.9 °F 55% 29.85 in 10.0 mi NE 27.6 mph 41.4 mph 0.00 in Rain , Thunderstorm Light Thunderstorms and Rain
7:00 PM 75.2 °F - 59.0 °F 57% 29.89 in 10.0 mi ENE 19.6 mph 34.5 mph N/A Thunderstorm Partly Cloudy
7:17 PM 78.8 °F - 59.0 °F 51% 29.88 in 10.0 mi East 11.5 mph - N/A   Clear
7:53 PM 75.9 °F - 59.0 °F 56% 29.82 in 10.0 mi NNE 3.5 mph - N/A   Clear
8:53 PM 73.0 °F - 63.0 °F 71% 29.82 in 10.0 mi NNW 5.8 mph - N/A   Partly Cloudy
9:53 PM 70.0 °F - 61.0 °F 73% 29.82 in 10.0 mi WNW 5.8 mph - 0.00 in   Clear
10:53 PM 69.1 °F - 62.1 °F 78% 29.81 in 10.0 mi WNW 8.1 mph - N/A   Clear
11:53 PM 66.0 °F - 61.0 °F 84% 29.83 in 10.0 mi WNW 8.1 mph - N/A   Clear